Location: Angwan Shehu
(11.2514°N, 7.4613°E)
Time: 06:12:42
(UTC+00:00)

SR - Pass Details

Date: 20 April 2021
Orbit: 573 x 882 km, 66.7° (Epoch: 12 May)

Event Time Altitude Azimuth Distance (km) Brightness Sun altitude
Rises 04:42:45 0° 169° (S) 3,074 ? -8.8°
Reaches altitude 10° 04:45:34 10° 152° (SSE) 2,216 ? -8.2°
Maximum altitude 04:49:14 20° 106° (ESE) 1,702 ? -7.3°
Drops below altitude 10° 04:53:07 10° 60° (ENE) 2,363 ? -6.4°
Sets 04:56:13 0° 44° (NE) 3,347 ? -5.6°
